Погода в Репьевке Колхозной

Россия / Ульяновская область     54°02′57″N   47°27′12″E
темп.,
°C
ветер,
м/с
пор.,
м/с
влажн.,
%
обл.,
%
осадки,
мм/ч
давл.,
гПа
погр.,
м
24 января, вс
вс2401:00+1юз41099100 0.2 1020307
04:00+1юз4999100 0.3 1021288
07:00+1ююз5999100 0.0 1021281
10:00+1ююз410100100 0.0 1022302
13:00+1ююз411100100 0.0 1023305
16:00+1ююз41199100 0.0 1023362
19:00+1ююз51096100 0.0 1024326
22:00+1ююз51095100 0.0 1025319
25 января, пн
пн2501:000ююз51195100 0.0 1026391
04:000ююз61095100 0.0 1026456
07:00−1ююз51192100 0.0 1027524
10:00−3ю61093100 0.0 1028442
13:00−2ю61095100 0.0 1028538
16:00−1ю6991100 0.1 1027618
19:00−3ююв51193100 0.0 1026528
22:00−4ю61191100 0.0 1026582
26 января, вт
вт2601:00−3ю41194100 0.1 1025539
04:00−2ююв61093100 0.1 1025520
07:00−3ю51093100 0.0 1025557
10:00−4ю6109399 0.1 1025532
13:00−4ююв61194100 0.0 1025505
16:00−3ююв71293100 0.1 1023558
19:00−2ю61293100 0.0 1023662
22:00−2ю61293100 0.1 1023558
27 января, ср
ср2701:00−1ю61192100 0.0 1023432
04:00−2ююв61194100 0.0 1022369
07:00−3ююв5994100 0.0 1022328
10:00−3ююв61195100 0.0 1022378
13:00−2ююв5995100 0.0 1022420
16:00−2ююв61094100 0.0 1022434
19:00−6ююв61193100 0.0 1022299
22:00−6ююв61291100 0.0 1022334
28 января, чт
чт2801:00−7ююв61290100 0.0 1021331
04:00−7ююв61292100 0.0 1020318
07:00−8ююв71292100 0.0 1019326
10:00−8ююв71391100 0.0 1018355
13:00−6ююв71292100 0.0 1018383
16:00−6ююв71290100 0.0 1016395
19:00−7юв61392100 0.0 1016390
22:00−8ююв61293100 0.0 1015401